Location: Cotdoussan
(43.0366°N, 0.0068°E)
Time: 00:29:57
(UTC+00:00)

ARIANE 6 FM1 Upper Stage - Pass Details

Date: 27 January 2026
Orbit: 522 x 609 km, 62.0° (Epoch: 11 February)

Event Time Altitude Azimuth Distance (km) Brightness Sun altitude
Rises 19:10:49 0° 270° (W) 2,695 7.6 -22.8°
Reaches altitude 10° 19:14:04 10° 298° (WNW) 1,790 6.0 -23.4°
Maximum altitude 19:16:05 13° 328° (NNW) 1,577 5.2 -23.8°
Enters shadow 19:17:39 11° 353° (N) 1,703 5.1 -24.1°
